Content
SEND FEEDBACK

Daily
Averages
Monthly
Summary
Chile

PUERTO MONTT, CHILE


Home > South America > Chile
Elevation: 85 meters     Latitude: 41 25S     Longitude: 073 05W

WEATHER
 
SELECT A DAY
Number of Records: 176,985;   Date Range: 6/30/96 - 8/31/14
 
SHARE

PRINT THIS DATA

[ ← Previous Day ]
WEATHER ALMANAC - 31 JANUARY, 2013
[ Next Day → ]
[ °F ]   °C
Weather ElementAverageHighLow
Temperature15.5 °C22.2 °C (3:00 pm)9 °C (7:00 am)
Dewpoint11.2 °C13 °C (1:00 pm)8.9 °C (3:00 am)
Humidity76.5 %100 % (4:00 am)37 % (3:00 pm)
Barometer1013.2 hPa1015.2 hPa (1:00 am)1011.2 hPa (4:00 pm)
Wind Speed8.9 km/h20.4 km/h (5:00 pm)
Weather ElementAverage
Visibility9.3 km
Wind DirectionSSW (191.9 °)

Weather ElementTotal
Precipitation---
Heating Degree Days2.7 (Base 18.3)
Growing Degree Days5.6 (Base 10)
Averaged from 32 records on 31 January, 2013
WEATHER CONDITIONS BREAKOUT
WIND DIRECTION BREAKOUT
WEATHER BY HOUR - 31 JANUARY, 2013
[ °F ]   °C
Local TimeTemperatureDewpointHumidityBarometerVisibilityWind DirectionWind SpeedGust SpeedPrecipitationEventsConditions
12:00 AM13 °C10 °C82 %1014.2 hPaSSE (160°)9.3 km/hClear
1:00 AM12 °C10 °C88 %1015.2 hPaSSW (200°)11.1 km/hClear
2:00 AM12 °C11 °C94 %1014.2 hPaSW (220°)9.3 km/hClear
3:00 AM10 °C8.9 °C89 %1014.2 hPa9.7 kmCalm
3:00 AM10 °C9 °C94 %1013.2 hPaCalmClear
4:00 AM10 °C10 °C100 %1014.2 hPa10 kmWSW (240°)7.4 km/hPartly Cloudy
5:00 AM10 °C9 °C94 %1013.2 hPa10 kmSSE (160°)3.7 km/hPartly Cloudy
6:00 AM10 °C10 °C100 %1013.2 hPa10 kmSSW (210°)11.1 km/hPartly Cloudy
6:00 AM10.6 °C10 °C94 %1014.2 hPa9.7 kmSSW (210°)11.1 km/hScattered Clouds
7:00 AM9 °C9 °C100 %1013.2 hPa5 kmSW (220°)3.7 km/hFogPartly Cloudy
8:00 AM9 °C9 °C100 %1013.2 hPa1.9 kmSW (230°)7.4 km/hFogFog
8:35 AM11 °C11 °C100 %1014.2 hPa10 kmCalmPartly Cloudy
9:00 AM13.3 °C12.2 °C91 %1014.2 hPa9.7 kmSW (230°)5.6 km/hScattered Clouds
9:00 AM13 °C12 °C94 %1014.2 hPa10 kmSW (230°)5.6 km/hPartly Cloudy
10:00 AM15 °C11 °C77 %1013.2 hPa10 kmSouth (170°)9.3 km/hScattered Clouds
11:00 AM17 °C11 °C68 %1013.2 hPa10 kmSSE (160°)9.3 km/hScattered Clouds
12:00 PM19 °C12 °C64 %1014.2 hPa10 kmSE (140°)13 km/hScattered Clouds
12:00 PM18.3 °C12.2 °C58 %1014.2 hPa9.7 kmSE (140°)13 km/hPartly Cloudy
1:00 PM19 °C13 °C68 %1013.2 hPa10 kmSSE (160°)9.3 km/hScattered Clouds
2:00 PM21 °C12 °C56 %1013.2 hPaSouth (190°)9.3 km/hClear
3:00 PM22.2 °C10.6 °C37 %1012.2 hPa9.7 kmSSW (210°)11.1 km/hScattered Clouds
3:00 PM22 °C11 °C50 %1012.2 hPa10 kmSSW (210°)11.1 km/hMostly Cloudy
4:00 PM22 °C11 °C50 %1011.2 hPa10 kmSSW (210°)13 km/hMostly Cloudy
5:00 PM21 °C12 °C56 %1011.2 hPaSSW (210°)20.4 km/hClear
6:00 PM21 °C12 °C56 %1012.2 hPaSW (230°)16.7 km/hClear
6:00 PM21.1 °C12.2 °C47 %1011.9 hPa9.7 kmSW (230°)16.7 km/hPartly Cloudy
7:00 PM19 °C12 °C64 %1012.2 hPa10 kmSW (230°)16.7 km/hMostly Cloudy
8:00 PM18 °C12 °C68 %1012.2 hPa10 kmWSW (240°)9.3 km/hMostly Cloudy
9:00 PM16.7 °C12.8 °C72 %1012.5 hPa9.7 kmWest (280°)3.7 km/hPartly Cloudy
9:00 PM17 °C13 °C77 %1012.2 hPa10 kmWest (280°)3.7 km/hMostly Cloudy
10:00 PM17 °C13 °C77 %1012.2 hPa10 kmNNW (340°)3.7 km/hOvercast
11:00 PM16 °C13 °C82 %1012.2 hPa10 kmNorth (10°)7.4 km/hOvercast
Hourly data recorded from SCTE, located 0 kilometers away from Puerto Montt, Chile







STORIES FROM OUR PARTNERS